Theta_e
353 360 363 362 362 363 364 364 364 364 363 363 363 362 360 359 360 361 362 361 360 359 356 356 355 355 354 354 354 354 355 355 354 353 353 352 351 349 349 349 348 346 348
356 360 363 363 362 363 363 363 363 363 363 362 362 360 359 360 362 362 361 359 359 357 356 356 356 356 354 354 354 354 353 353 353 353 353 352 350 349 348 348 348 349 347
357 360 360 362 362 362 362 362 361 361 361 361 360 359 360 361 362 361 361 359 357 356 356 357 356 356 357 357 357 356 354 353 352 350 350 347 346 348 347 347 347 348 348
357 359 357 362 362 362 361 360 359 360 360 360 360 361 361 362 361 360 361 359 356 355 356 357 356 356 356 355 354 354 355 354 354 353 353 348 347 348 348 348 347 346 348
356 358 360 362 361 361 360 359 359 359 359 360 361 361 361 361 361 361 361 358 355 354 355 356 355 354 354 355 356 355 353 350 347 346 352 353 351 348 348 348 349 348 347
354 356 362 362 361 361 360 359 359 359 359 359 360 360 360 360 360 360 360 358 357 354 353 354 354 354 354 354 354 351 349 350 343 348 351 354 349 351 350 350 351 349 349
354 355 359 361 361 361 360 359 358 358 358 358 359 359 358 359 359 359 358 357 356 354 353 353 354 353 352 352 351 348 348 348 346 343 352 354 351 350 352 351 351 350 349
354 357 358 361 360 359 360 359 358 358 358 358 359 359 358 358 358 357 356 356 355 355 354 353 353 352 352 351 349 348 346 348 344 344 344 354 352 348 352 355 353 351 350
355 356 356 357 359 360 359 358 358 358 358 358 359 359 358 358 357 355 355 354 354 355 354 353 351 351 350 349 348 348 348 348 345 344 339 341 351 350 352 356 356 354 351
354 355 355 356 354 355 356 359 358 358 358 358 358 358 358 358 357 355 352 354 353 353 354 353 352 352 350 350 350 349 348 349 343 341 340 340 341 345 353 357 358 357 355
352 353 354 354 356 355 355 357 357 357 357 357 357 357 355 354 355 354 353 352 352 351 352 353 353 353 351 351 350 349 349 343 341 340 342 348 343 345 348 356 358 358 356
349 352 354 355 355 355 353 356 355 354 353 353 353 354 352 353 354 351 352 352 353 352 353 352 352 351 348 343 342 343 337 336 334 339 342 345 345 346 348 352 357 359 358
350 352 353 355 357 356 354 354 353 353 353 354 355 356 354 352 352 351 350 350 351 351 349 347 347 345 343 343 340 340 339 339 337 340 344 344 346 347 350 357 354 357 359
348 350 353 355 356 357 356 354 354 352 352 351 353 356 354 351 350 349 348 348 349 347 348 348 346 349 348 346 343 341 343 344 342 343 347 346 347 348 352 357 358 357 359
346 348 352 354 354 356 357 355 355 354 353 353 353 354 353 350 349 348 348 347 346 346 345 345 348 350 349 349 346 343 343 346 348 348 350 351 349 350 351 354 357 360 360
349 349 350 352 354 353 354 356 355 355 355 354 352 352 352 350 350 347 347 345 345 346 345 346 349 350 350 350 349 348 349 351 350 351 352 354 347 347 350 351 354 355 358
349 352 351 352 352 352 354 355 354 354 353 352 352 354 354 353 353 351 346 344 344 347 350 350 350 350 350 351 351 352 353 354 353 354 353 354 352 347 349 347 348 350 352
349 349 352 350 351 352 355 354 352 350 350 350 352 353 353 354 354 351 347 344 344 346 348 349 350 349 349 350 351 350 350 352 353 355 356 354 351 346 343 344 344 345 345
348 349 349 350 349 350 351 349 349 348 348 348 349 348 351 352 351 350 346 345 347 344 347 348 349 350 349 350 350 350 348 349 351 349 351 350 347 344 345 339 340 340 340
346 349 350 349 350 350 348 347 347 345 345 345 345 345 348 348 347 348 347 347 347 344 345 346 349 352 348 348 346 343 345 346 349 350 349 344 343 343 343 342 343 341 337
341 346 348 349 350 347 346 344 344 345 346 345 346 348 348 347 347 350 348 348 349 347 349 350 349 348 348 343 342 343 343 343 344 344 346 343 343 341 342 339 340 340 339
339 341 345 347 349 348 348 348 349 347 349 350 351 352 351 350 351 350 351 350 351 349 349 347 348 343 340 345 342 342 332 336 334 339 340 341 341 339 339 337 339 340 342
339 341 341 344 348 348 349 346 348 352 355 352 354 354 354 352 352 353 352 353 352 352 350 350 348 346 339 345 339 339 329 324 325 332 337 336 339 335 336 335 336 336 339
334 339 343 345 345 346 348 346 345 342 342 349 353 355 357 358 356 355 355 353 351 352 351 352 351 346 343 338 343 340 331 328 324 323 331 335 337 336 338 332 332 333 335
332 336 340 343 345 346 345 346 344 343 345 349 350 350 354 354 355 356 358 357 351 351 349 347 344 347 345 342 338 334 335 329 326 323 320 327 331 332 334 333 331 331 333
327 332 337 337 340 342 342 343 343 342 343 343 346 347 344 346 343 343 345 350 352 352 349 350 348 346 346 340 339 337 334 330 326 326 322 329 329 330 328 331 330 329 330
Wind_Speed
16 18 16 13 13 13 16 18 17 17 17 17 18 18 18 17 16 15 14 14 12 13 14 14 14 14 14 14 14 12 11 10 8 7 5 5 6 5 5 5 4 6 6
21 20 17 14 13 14 17 18 17 16 17 16 17 18 17 16 15 14 13 12 11 13 14 14 14 15 15 14 13 11 10 9 7 6 8 7 5 4 4 4 1 7 4
22 19 19 16 14 15 16 17 17 16 16 16 17 17 17 15 14 14 13 12 11 12 11 12 13 14 14 13 12 10 9 7 7 6 4 3 4 3 3 3 3 4 4
21 19 18 16 14 15 16 17 17 17 16 16 16 16 15 14 13 13 12 11 12 11 11 10 10 11 11 11 10 8 7 5 5 4 4 3 2 5 4 3 3 4 4
20 19 17 17 15 15 16 17 17 16 16 16 16 15 14 13 12 11 11 11 12 11 11 10 9 9 9 8 7 6 5 3 3 4 3 3 2 6 4 4 5 5 4
19 18 18 17 16 15 17 18 17 15 14 15 15 14 14 12 11 10 10 10 10 11 10 10 8 7 6 5 5 4 2 2 2 3 2 5 5 5 6 6 5 5 5
18 17 18 16 17 17 17 18 18 17 15 13 13 13 13 12 10 9 8 8 9 9 9 9 8 6 4 4 3 2 1 2 3 5 2 4 5 4 7 6 7 7 7
20 17 17 16 15 15 18 18 18 17 16 15 13 13 12 11 9 8 7 8 7 7 7 7 7 6 5 4 3 2 2 4 2 1 0 3 5 7 8 8 9 9 10
18 17 15 15 14 14 12 13 16 18 16 15 13 12 11 10 8 7 5 6 6 6 6 6 5 5 5 4 3 3 3 3 5 3 4 3 6 9 10 10 11 12 11
14 16 15 14 14 13 13 13 13 12 13 14 13 12 11 10 9 7 6 6 7 6 5 6 6 5 4 4 4 4 5 7 6 5 5 4 4 7 11 11 12 12 12
12 13 14 13 12 12 12 12 13 14 14 13 13 12 10 7 8 8 4 4 4 5 6 7 6 6 5 5 5 6 7 4 5 4 4 1 6 8 9 11 13 14 13
17 14 14 13 12 12 10 12 11 11 10 10 10 11 8 8 7 6 5 5 5 6 6 6 6 5 6 4 3 5 4 5 5 5 4 4 8 9 9 11 13 14 14
18 14 15 14 13 14 11 9 7 7 7 7 10 10 8 6 6 6 4 5 5 6 5 5 5 5 5 4 4 4 5 6 4 4 4 6 9 9 8 10 13 14 14
16 16 16 15 13 12 9 9 8 7 8 7 8 8 6 5 6 5 4 5 5 4 5 5 4 5 6 6 7 6 6 5 4 4 5 6 9 9 9 7 9 11 12
13 14 15 15 14 12 12 8 8 8 8 7 7 9 8 7 6 5 6 5 4 5 5 5 5 5 5 6 6 6 7 7 8 5 5 5 9 9 9 7 8 9 10
15 14 14 14 14 13 10 11 9 8 9 8 8 8 10 7 7 7 6 5 6 6 6 6 5 5 5 6 6 6 8 8 8 8 6 5 5 8 7 6 6 8 10
15 16 18 17 16 16 17 13 10 8 8 8 10 13 13 11 10 8 6 6 7 6 6 6 6 5 7 5 7 6 5 7 8 9 7 6 4 3 1 2 3 4 5
11 15 16 15 18 18 15 14 11 9 8 8 7 8 11 11 9 7 7 7 6 5 5 5 5 6 7 6 5 5 6 6 7 8 6 5 3 3 2 4 4 3 4
10 11 13 14 16 16 11 9 9 10 8 6 5 5 6 9 8 7 6 6 6 5 6 5 5 6 6 6 6 5 6 7 8 6 7 5 3 3 1 2 2 1 2
12 12 11 10 10 9 6 5 3 3 6 5 4 6 8 8 9 8 7 7 7 7 6 6 5 4 7 5 6 7 7 8 7 7 8 5 5 5 4 3 2 1 2
14 15 14 13 11 9 6 4 6 4 4 4 5 9 8 7 10 11 8 8 7 7 8 5 3 5 4 2 6 9 6 9 10 8 7 7 6 5 4 4 3 2 3
13 17 16 14 13 11 7 4 2 3 2 3 5 7 9 11 12 10 11 10 9 7 6 5 6 3 3 5 6 5 5 4 5 7 7 7 7 4 6 5 5 4 3
13 15 16 16 14 11 9 4 1 2 2 3 6 5 6 11 13 13 11 10 10 9 9 7 9 10 5 4 9 7 3 4 2 2 7 7 7 6 6 5 5 5 5
16 13 13 13 13 12 10 5 6 6 7 2 1 2 3 5 10 11 10 9 8 8 8 9 9 6 6 5 4 7 2 1 2 7 5 6 8 8 8 6 6 6 4
12 11 8 10 9 8 9 9 9 7 5 4 1 3 3 4 5 5 6 8 9 6 7 7 5 8 8 4 4 2 5 4 4 5 10 7 5 8 8 7 6 6 6
12 8 4 4 5 8 9 9 10 9 7 3 1 3 5 4 4 6 6 5 5 7 8 8 9 8 6 6 7 7 6 4 4 6 7 11 12 7 8 8 8 7 7
Wind_Direction
154 152 151 158 144 138 129 121 121 124 125 126 129 127 127 125 126 122 119 116 117 119 118 116 116 115 111 108 105 106 108 107 104 92 105 105 107 108 110 108 142 101 102
144 148 149 153 149 137 123 120 118 118 120 123 124 127 125 123 122 121 119 118 122 124 125 126 126 121 117 115 113 114 116 118 115 100 93 108 120 127 121 119 118 96 116
140 145 151 151 151 136 126 121 117 115 118 120 124 126 122 123 124 121 119 122 128 127 130 131 130 127 127 128 126 127 128 127 122 121 134 96 101 154 153 148 153 137 130
141 145 150 146 148 136 130 123 119 119 120 121 125 124 121 122 126 124 124 128 131 132 136 136 133 132 131 131 129 132 135 142 154 171 189 133 135 155 178 175 196 177 170
144 145 143 141 144 137 130 123 121 123 125 126 126 122 123 124 129 127 129 134 137 140 143 144 142 140 138 139 135 136 128 123 117 216 216 187 202 139 196 200 208 213 208
146 144 135 135 137 136 135 129 126 124 124 124 123 121 123 126 124 126 133 139 141 146 149 152 150 150 149 150 146 140 111 49 243 67 174 183 226 132 200 217 236 251 228
142 143 140 133 136 136 136 134 132 130 127 124 125 125 126 130 133 135 138 137 142 151 153 155 157 156 163 177 177 164 107 17 341 59 75 194 208 192 214 228 244 244 243
145 145 142 132 135 137 140 138 135 133 132 133 132 132 135 137 138 139 145 145 145 152 165 165 164 169 177 201 237 278 338 345 267 28 49 200 177 211 220 227 234 241 246
144 141 143 143 132 123 125 133 139 140 140 139 137 139 140 140 139 144 150 149 157 167 179 180 188 188 193 216 252 296 308 313 288 285 277 248 175 221 230 231 236 233 237
144 143 144 147 147 149 147 136 135 136 140 141 146 151 149 150 152 160 170 171 181 189 198 209 215 222 224 246 267 283 293 278 270 265 253 255 250 246 244 240 239 236 232
146 150 149 147 151 152 150 144 138 144 150 154 158 161 161 180 180 178 173 192 203 209 219 227 237 244 261 265 294 303 296 275 275 266 269 216 266 257 248 245 238 239 240
153 156 152 151 156 156 159 159 164 164 173 176 176 174 184 184 186 195 198 205 227 238 249 253 260 273 256 275 266 245 271 279 271 276 274 274 262 257 253 248 239 238 238
154 159 162 161 168 168 169 170 175 176 173 184 184 180 183 177 187 202 203 207 212 210 239 230 245 251 265 275 272 274 281 279 273 268 274 278 273 277 265 247 234 232 229
169 165 163 163 168 176 174 180 180 184 181 184 189 185 184 190 194 209 217 221 220 225 239 246 250 267 268 264 271 275 271 272 261 275 273 256 266 267 274 264 237 230 234
173 171 174 168 171 178 183 180 190 192 188 185 187 194 198 201 199 206 219 228 233 233 242 249 249 262 274 274 271 271 271 268 269 272 281 273 279 291 286 281 263 249 240
175 177 178 183 175 175 193 190 193 193 183 187 196 207 203 202 202 211 214 220 231 231 232 240 251 262 267 273 270 269 271 264 260 264 267 267 259 283 296 287 281 278 270
181 181 186 187 184 182 190 194 192 199 192 199 199 198 202 205 208 213 216 229 238 233 236 241 252 259 269 258 261 261 273 270 258 258 258 259 257 206 352 34 356 340 323
192 192 192 194 191 193 193 187 185 182 197 217 230 198 206 214 215 206 216 231 242 244 254 259 258 258 262 270 275 261 262 271 274 265 266 257 247 270 159 23 350 19 36
207 204 206 208 206 202 203 201 203 172 186 211 216 233 221 227 218 225 230 239 238 246 245 257 272 271 276 275 271 261 265 268 267 271 265 254 219 260 235 176 271 305 348
213 215 217 216 220 217 213 214 241 199 171 162 200 226 204 221 213 215 225 234 222 236 240 235 263 270 272 294 289 267 255 261 255 258 258 240 212 216 224 246 257 157 323
211 218 217 213 210 205 198 187 212 141 189 204 225 235 202 206 208 213 217 223 219 229 233 219 276 282 283 257 283 264 263 243 241 246 246 233 222 223 227 222 230 235 207
209 219 220 217 209 208 207 202 159 141 167 232 228 224 209 206 216 215 218 222 222 230 233 223 182 171 192 204 259 281 291 244 242 243 244 244 226 221 226 220 195 205 202
208 212 219 220 210 208 218 221 233 108 123 187 212 219 221 203 215 221 223 234 227 222 226 230 221 193 228 227 220 264 254 239 332 193 220 233 238 220 227 224 204 204 202
227 206 214 215 207 196 190 207 211 228 223 194 107 35 305 237 222 222 224 228 235 228 227 227 225 204 207 233 247 227 211 142 65 310 222 229 227 232 228 217 209 216 207
241 231 196 198 200 192 173 184 190 196 199 145 198 267 284 344 325 298 254 240 233 222 223 227 234 214 202 220 254 226 231 223 169 206 292 265 236 236 231 222 224 217 213
242 243 220 157 192 178 164 173 181 192 206 197 169 90 60 57 44 4 337 303 280 259 242 242 229 209 232 227 220 207 203 194 193 191 229 262 254 242 232 228 225 218 217